NOAA 16 DEB, 41150

Orbit data source: Space-Track

NOAA 16 DEB, 41150 is space debris in SSO originally from a launch on Thu, 21 Sep 2000 UTC launched from the Air Force Western Test Range (AFWTR). Debris objects in space refer to the collection of defunct objects orbiting the Earth. Examples of debris include non-operational satellites, rocket bodies, and fragments generated from explosions, collisions, or faulty payload assembly.

Loading next visibility...
Identifier
41150, 2000-055CH
Orbit
SSO
Country
Flag of USUS
Related business
Manufacturer
Unknown
Mission
Spacecraft
Bus & Motor
Unknown
Mass
Unknown
Launch date (UTC)
2000-09-21 (26 years ago)
Launch vehicle
Unknown
Launch site
Air Force Western Test Range (AFWTR)
Object type
Payload
Rocket body
Debris
Shape & HBR
Unknown shape, 0.1 m
Radar Cross Section
Medium (>0.1 m² and <1 m²)

Expand to show TLE details & history
Last TLE update: 6 days ago

TLE from 6 days ago
0 NOAA 16 DEB
1 41150U 00055CH  26155.31686178  .00028681  00000-0  31977-2 0  9994
2 41150  98.8082 346.2551 0022798 350.6637   9.4148 14.86809179550461
Epoch: 2026-06-04T07:36Z
TLE epoch observation values (Epoch: 2026-06-04T07:36:16.857Z)
Latitude
-0.00013°
Longitude
-20.57799°
Altitude
595.2 km
Speed
7.571 km/s
True Right ascension
23h 05m 01s
True Declination
0° 00' 00"
Sunlit
Object was in daylight at epoch
Visualization orbit readout
Latitude
Unknown
Longitude
Unknown
Altitude
Unknown
Speed
Unknown
Apparent Right ascension
Unknown
Apparent Declination
Unknown
Sunlit
N/A
Visualization observer readout
Local Sidereal Time
06:11:06
Azimuth
Unknown
Elevation
Unknown
Doppler factor
Unknown
Orbital elements
Apogee altitude
620.908 km
Perigee altitude
589.068 km
Semi-major axis
6,983.125 km
Eccentricity
0.00228
Inclination
98.8082°
RAAN
346.2551°
Arg. of periapsis
350.6637°
True anomaly
9.45766°
Mean anomaly
9.4148°
Eccentric anomaly
9.43622°
Mean motion
3.71936 °/min
Orbital period
96.79 mins
BSTAR
0.0031977
Loading maneuver chart data...
Computing Atmospheric mass density...
Loading historical data...
Loading historical data...
Loading historical data...
Loading historical data...
Loading historical data...
Loading historical data...
Loading historical data...

Documentation

Showing up to 5 results
|